Home   Weather   Harrisburg   Past weeks
Flag for USA

Past Weather in Harrisburg, Pennsylvania, USA — Yesterday and Last 2 Weeks

Now
63 °F

Mostly cloudy.


Feels Like: 63 °F
Forecast: 81 / 59 °F
Wind: 3 mph from South

Location: Capital City Airport

Current Time: May 23, 2019 at 7:33:29 am

Latest Report: May 23, 2019 at 6:56 am


Visibility: 10 mi

Pressure: 30.16 "Hg

Humidity: 60%

Dew Point: 49 °F

Location of HarrisburgLocation

Past Weather in Harrisburg — Graph

°F

Harrisburg Temperature Yesterday

Maximum temperature yesterday: 73 °F (at 5:56 pm)
Minimum temperature yesterday: 46 °F (at 5:56 am)
Average temperature yesterday: 62 °F

High & Low Weather Summary for the Past Weeks

 TemperatureHumidityPressure
High91 °F (May 19, 3:56 pm)93% (May 9, 11:56 am)30.29 "Hg (May 9, 11:56 am)
Low45 °F (May 13, 5:04 am)27% (May 15, 1:56 pm)29.74 "Hg (May 17, 3:56 pm)
Average63 °F68%29.96 "Hg
* Reported May 8 5:56 am — May 23 5:56 am, Harrisburg. Weather by CustomWeather, © 2019

Note: Actual official high and low records may vary slightly from our data, if they occured in-between our weather recording intervals... More about our weather records

Advertising

Harrisburg Weather History for the Previous 24 Hours

Scroll right to see more
 ConditionsComfort  
Time TempWeatherWind HumidityBarometerVisibility
5:56 am
Thu, May 23
63 °FMostly cloudy.5 mph60%30.15 "Hg10 mi
4:56 am63 °FPassing clouds.5 mph58%30.15 "Hg10 mi
3:56 am64 °FOvercast.7 mph56%30.15 "Hg10 mi
2:56 am65 °FOvercast.5 mph52%30.16 "Hg10 mi
1:56 am64 °FOvercast.5 mph52%30.18 "Hg10 mi
12:56 am65 °FPassing clouds.5 mph49%30.19 "Hg10 mi
11:56 pm
Wed, May 22
65 °FPassing clouds.7 mph49%30.21 "Hg10 mi
10:56 pm65 °FClear.5 mph47%30.22 "Hg10 mi
9:56 pm67 °FMostly cloudy.7 mph44%30.23 "Hg10 mi
8:56 pm67 °FPassing clouds.5 mph45%30.22 "Hg10 mi
7:56 pm69 °FSunny.5 mph41%30.20 "Hg10 mi
6:56 pm70 °FSunny.6 mph38%30.20 "Hg10 mi
5:56 pm73 °FSunny.7 mph33%30.20 "Hg10 mi
4:56 pm71 °FSunny.6 mph34%30.21 "Hg10 mi
3:56 pm72 °FSunny.6 mph33%30.23 "Hg10 mi
2:56 pm71 °FPassing clouds.7 mph31%30.24 "Hg10 mi
1:56 pm72 °FOvercast.3 mph29%30.25 "Hg10 mi
12:56 pm69 °FPartly sunny.3 mph30%30.27 "Hg10 mi
11:56 am69 °FSunny.7 mph30%30.28 "Hg10 mi
10:56 am67 °FSunny.3 mph36%30.28 "Hg10 mi
9:56 am63 °FSunny.No wind47%30.29 "Hg10 mi
8:56 am56 °FSunny.5 mph67%30.29 "Hg10 mi
7:56 am53 °FSunny.5 mph69%30.28 "Hg10 mi
Weather by CustomWeather, © 2019

See weather overview